Phuket, Thailand

11:10 AM +07 on October 23, 2017 (GMT +0700)
Phuket International

Weather History for VTSP - April, 2017

Change the Weather History Date:

Friday, April 21, 2017

  Actual Average Record
Temperature  
Mean Temperature 90 °F -  
Max Temperature 104 °F 90 °F 104 °F (2017)
Min Temperature 75 °F 78 °F 74 °F (2014)
Cooling Degree Days 24    
Growing Degree Days 40 (Base 50)    
Moisture  
Dew Point 75 °F    
Average Humidity 77    
Maximum Humidity 96    
Minimum Humidity 66    
Precipitation  
Precipitation 1.18 in 0.38 in - ()
Sea Level Pressure  
Sea Level Pressure 29.88 in    
Wind  
Wind Speed 4 mph ()    
Max Wind Speed 13 mph    
Max Gust Speed -    
Visibility 4.9 miles    
Events Rain , Thunderstorm    
Averages and records for this station are not official NWS values.
T = Trace of Precipitation, MM = Missing Value Source: Averaged Metar Reports

Daily Weather History Graph

Daily Weather History Graph

Search for Another Location

Airport or City:

Trip Planner

Search our weather history database for the weather conditions in past years. The results will help you decide how hot, cold, wet, or windy it might be!

Date:

Astronomy

Apr. 21, 2017 Rise Set
Actual Time 6:15 AM +07 6:35 PM +07
Civil Twilight 5:53 AM +07 6:57 PM +07
Nautical Twilight 5:28 AM +07 7:22 PM +07
Astronomical Twilight 5:03 AM +07 7:47 PM +07
Moon 1:54 AM +07 (4/21) 2:01 PM +07 (4/21)
Length of Visible Light 13h 03m
Length of Day
12h 20m
Waning Crescent, 32% of the Moon is Illuminated
Apr 21
Waning Crescent
Apr 26
New
May 3
First Quarter
May 11
Full
May 19
Last Quarter

Hourly Weather History & Observations

Time (+07) Temp. Heat Index Dew Point Humidity Pressure Visibility Wind Dir Wind Speed Gust Speed Precip Events Conditions
12:00 AM 84.2 °F 92.3 °F 75.2 °F 74% 29.92 in 5.0 mi WNW 6.9 mph - N/A   Scattered Clouds
12:30 AM 84.2 °F 92.3 °F 75.2 °F 74% 29.92 in 5.0 mi WNW 5.8 mph - N/A   Scattered Clouds
1:00 AM 84 °F - 80 °F 86% 29.86 in 5 mi Calm Calm - -   Mist
1:00 AM 84.2 °F 92.3 °F 75.2 °F 74% 29.89 in 5.0 mi West 3.5 mph - N/A   Unknown
1:30 AM 82.4 °F 89.5 °F 75.2 °F 79% 29.89 in 5.0 mi Variable 2.3 mph - N/A   Scattered Clouds
2:00 AM 80.6 °F 85.4 °F 73.4 °F 79% 29.89 in 5.0 mi Calm Calm - N/A   Scattered Clouds
2:30 AM 82.4 °F 89.5 °F 75.2 °F 79% 29.86 in 5.0 mi WNW 3.5 mph - N/A   Scattered Clouds
3:00 AM 80.6 °F 85.4 °F 73.4 °F 79% 29.86 in 5.0 mi Calm Calm - N/A   Scattered Clouds
3:30 AM 80.6 °F 86.2 °F 75.2 °F 84% 29.83 in 5.0 mi WNW 3.5 mph - N/A   Scattered Clouds
4:00 AM 79 °F - 74 °F 79% 29.80 in 5 mi Calm Calm - -   Mist
4:00 AM 82.4 °F 89.5 °F 75.2 °F 79% 29.83 in 5.0 mi NNW 4.6 mph - N/A   Scattered Clouds
4:30 AM 80.6 °F 86.2 °F 75.2 °F 84% 29.83 in 5.0 mi Variable 1.2 mph - N/A   Scattered Clouds
5:00 AM 80.6 °F 86.2 °F 75.2 °F 84% 29.86 in 5.0 mi Variable 1.2 mph - N/A   Scattered Clouds
5:30 AM 80.6 °F 85.4 °F 73.4 °F 79% 29.86 in 5.0 mi Calm Calm - N/A   Scattered Clouds
6:00 AM 80.6 °F 86.2 °F 75.2 °F 84% 29.89 in 5.0 mi Variable 2.3 mph - N/A   Scattered Clouds
6:30 AM 78.8 °F - 73.4 °F 83% 29.92 in 4.3 mi SE 3.5 mph - N/A Rain Light Rain
7:00 AM 77.0 °F - 69.8 °F 78% 29.95 in - WNW 12.7 mph - N/A Rain , Thunderstorm Heavy Thunderstorms and Rain
7:30 AM 75.2 °F - 69.8 °F 83% 29.95 in 1.9 mi West 12.7 mph - N/A Rain , Thunderstorm Thunderstorms and Rain
8:00 AM 77.0 °F - 71.6 °F 83% 29.95 in 4.3 mi SW 4.6 mph - N/A Rain Light Rain
8:30 AM 78.8 °F - 73.4 °F 83% 29.98 in 4.3 mi Variable 1.2 mph - N/A   Mostly Cloudy
9:00 AM 78.8 °F - 73.4 °F 83% 29.98 in 4.3 mi SW 3.5 mph - N/A   Mostly Cloudy
9:30 AM 80.6 °F 86.2 °F 75.2 °F 84% 29.95 in 5.0 mi Variable 2.3 mph - N/A   Mostly Cloudy
10:00 AM 79 °F - 78 °F 96% 29.91 in 5 mi SSW 1.2 mph - -   Mist
10:00 AM 80.6 °F 86.2 °F 75.2 °F 84% 29.95 in 5.0 mi Variable 2.3 mph - N/A   Mostly Cloudy
10:30 AM 82.4 °F 90.9 °F 77.0 °F 84% 29.95 in 5.0 mi Variable 2.3 mph - N/A   Mostly Cloudy
11:00 AM 84.2 °F 94.1 °F 77.0 °F 79% 29.95 in 5.0 mi WNW 3.5 mph - N/A   Mostly Cloudy
11:30 AM 84.2 °F 94.1 °F 77.0 °F 79% 29.95 in 5.0 mi Variable 4.6 mph - N/A   Mostly Cloudy
12:00 PM 84.2 °F 94.1 °F 77.0 °F 79% 29.92 in 5.0 mi West 4.6 mph - N/A   Mostly Cloudy
12:30 PM 86.0 °F 96.9 °F 77.0 °F 74% 29.92 in 5.0 mi West 9.2 mph - N/A   Mostly Cloudy
1:00 PM 86 °F - 78 °F 73% 29.86 in 5 mi West 2.3 mph - -   Mist
1:00 PM 86.0 °F 96.9 °F 77.0 °F 74% 29.89 in 5.0 mi West 9.2 mph - N/A   Scattered Clouds
1:30 PM 86.0 °F 96.9 °F 77.0 °F 74% 29.89 in 5.0 mi West 10.4 mph - N/A   Scattered Clouds
2:00 PM 86.0 °F 96.9 °F 77.0 °F 74% 29.86 in 5.0 mi West 10.4 mph - N/A   Scattered Clouds
2:30 PM 87.8 °F 99.7 °F 77.0 °F 70% 29.86 in 5.0 mi West 10.4 mph - N/A   Scattered Clouds
3:00 PM 87.8 °F 99.7 °F 77.0 °F 70% 29.83 in 5.0 mi West 10.4 mph - N/A   Scattered Clouds
3:30 PM 86.0 °F 96.9 °F 77.0 °F 74% 29.83 in 5.0 mi West 9.2 mph - N/A   Scattered Clouds
4:00 PM 88 °F - 80 °F 70% 29.78 in 5 mi West 2.3 mph - -   Mist
4:00 PM 87.8 °F 97.6 °F 75.2 °F 66% 29.83 in 5.0 mi West 9.2 mph - N/A   Scattered Clouds
4:30 PM 87.8 °F 97.6 °F 75.2 °F 66% 29.83 in 5.0 mi West 10.4 mph - N/A   Scattered Clouds
5:00 PM 87.8 °F 97.6 °F 75.2 °F 66% 29.83 in 5.0 mi West 11.5 mph - N/A   Scattered Clouds
5:30 PM 86.0 °F 95.1 °F 75.2 °F 70% 29.83 in 5.0 mi West 10.4 mph - N/A   Scattered Clouds
6:00 PM 86.0 °F 95.1 °F 75.2 °F 70% 29.83 in 5.0 mi West 11.5 mph - N/A   Mostly Cloudy
6:30 PM 84.2 °F 92.3 °F 75.2 °F 74% 29.83 in 5.0 mi WNW 8.1 mph - N/A   Mostly Cloudy
7:00 PM 86 °F - 77 °F 69% 29.81 in 5 mi NW 2.3 mph - -   Mist
7:00 PM 84.2 °F 92.3 °F 75.2 °F 74% 29.86 in 5.0 mi WNW 6.9 mph - N/A   Mostly Cloudy
7:30 PM 84.2 °F 90.9 °F 73.4 °F 70% 29.86 in 5.0 mi WNW 6.9 mph - N/A   Mostly Cloudy
8:00 PM 84.2 °F 92.3 °F 75.2 °F 74% 29.86 in 5.0 mi WNW 5.8 mph - N/A   Mostly Cloudy
8:30 PM 84.2 °F 92.3 °F 75.2 °F 74% 29.86 in 5.0 mi WNW 5.8 mph - N/A   Mostly Cloudy
9:00 PM 84.2 °F 92.3 °F 75.2 °F 74% 29.89 in 5.0 mi WNW 5.8 mph - N/A   Mostly Cloudy
9:30 PM 84.2 °F 92.3 °F 75.2 °F 74% 29.89 in 5.0 mi NW 3.5 mph - N/A   Mostly Cloudy
10:00 PM 83 °F - 77 °F 78% 29.86 in 5 mi Calm Calm - -   Mist
10:00 PM 84.2 °F 92.3 °F 75.2 °F 74% 29.89 in 5.0 mi NNW 4.6 mph - N/A   Mostly Cloudy
10:30 PM 82.4 °F 88.2 °F 73.4 °F 74% 29.89 in 5.0 mi Calm Calm - N/A   Mostly Cloudy
11:00 PM 80.6 °F 85.4 °F 73.4 °F 79% 29.89 in 5.0 mi Variable 1.2 mph - N/A   Mostly Cloudy
11:30 PM 80.6 °F 85.4 °F 73.4 °F 79% 29.89 in 5.0 mi Variable 1.2 mph - N/A   Mostly Cloudy